Погода в Сан-Антонио

Чили     33°35′35″S   71°36′11″W
темп.,
°C
ветер,
м/с
пор.,
м/с
влажн.,
%
обл.,
%
осадки,
мм/ч
давл.,
гПа
погр.,
м
1 июля, пт
пт123:00+8с23910 0.0 101639
02:00+7св58894 0.0 1016163
05:00+10с71482100 0.9 1014598
08:00+9ссз4895100 9.4 1016547
11:00+11ссз127981 2.4 1018420
14:00+13сз456839 3.4 1019993
17:00+10сз358131 2.9 1020363
20:00+9св118871 4.5 102225
2 июля, сб
сб223:00+7в22880 0.1 102323
02:00+6в22871 0.1 102129
05:00+5в22867 0.0 102026
08:00+5в22850 0.0 102123
11:00+10ююв22685 0.0 1021348
14:00+12юз32634 0.0 1020796
17:00+9юз34760 0.0 1020287
20:00+7ююв11831 0.0 102124
3 июля, вс
вс323:00+6вюв228475 0.0 102117
02:00+6вюв2283100 0.0 102027
05:00+7вюв2279100 0.0 101939
08:00+7вюв2273100 0.0 102129
11:00+11ююв2256100 0.0 1022217
14:00+13юз3355100 0.0 1021678
17:00+10юз458290 0.0 1023417
20:00+7ююз22880 0.0 102437
4 июля, пн
пн423:00+6ю12880 0.0 102527
02:00+6юв22900 0.0 102524
05:00+5вюв22930 0.0 102432
08:00+5вюв33910 0.0 102537
11:00+11юв33580 0.0 1024336
14:00+14ююз44490 0.0 1022702
17:00+11юз34670 0.0 1022153
20:00+8ю11790 0.0 102418
5 июля, вт
вт523:00+7юв11760 0.0 102419
02:00+6в12770 0.0 102415
05:00+5вюв22780 0.0 102318
08:00+5вюв32790 0.0 102325
11:00+11юв23510 0.0 1023320
14:00+14ююз44430 0.0 1021765
17:00+11юз45723 0.0 1021188
20:00+8ююз128596 0.0 102224